Location: ?????
(31.8092°N, 35.2590°E)
Time: 02:38:41
(UTC+00:00)

Cosmos 1954 Rocket - Pass Details

Date: 20 June 2021
Orbit: 752 x 781 km, 74.1° (Epoch: 04 August)

Event Time Altitude Azimuth Distance (km) Brightness Sun altitude
Rises 17:44:01 0° 344° (NNW) 3,270 8.2 -11.0°
Reaches altitude 10° 17:46:25 10° 346° (NNW) 2,338 7.3 -11.4°
Maximum altitude 17:51:45 81° 74° (ENE) 791 4.0 -12.3°
Enters shadow 17:56:28 13° 161° (SSE) 2,103 5.8 -13.0°
